| time (UTC) | temp F | wind direction | speed knots | gust knots | rain 1hr in | rain 24hr in | rain mn in | humidity % | barometer mb |
| 20260506110648 | 75 | 179 | 0.0 | 0.0 | 0.00 | 0.00 | 0.00 | 95 | 1012.5 |
| 20260506110147 | 75 | 179 | 0.0 | 0.0 | 0.00 | 0.00 | 0.00 | 95 | 1012.5 |
| 20260506105646 | 75 | 179 | 0.0 | 0.0 | 0.00 | 0.00 | 0.00 | 95 | 1012.4 |
| 20260506105144 | 75 | 179 | 0.0 | 0.0 | 0.00 | 0.00 | 0.00 | 95 | 1012.3 |
| 20260506104642 | 75 | 179 | 0.0 | 0.0 | 0.00 | 0.00 | 0.00 | 95 | 1012.3 |
| 20260506104140 | 75 | 179 | 0.0 | 0.0 | 0.00 | 0.00 | 0.00 | 95 | 1012.2 |
| 20260506103636 | 75 | 179 | 0.0 | 0.0 | 0.00 | 0.00 | 0.00 | 95 | 1012.1 |
| 20260506103136 | 75 | 179 | 0.0 | 0.0 | 0.00 | 0.00 | 0.00 | 95 | 1012.1 |
| 20260506102907 | 75 | 179 | 0.0 | 0.0 | 0.00 | 0.00 | 0.00 | 95 | 1012.0 |
| 20260506102409 | 75 | 179 | 0.0 | 0.0 | 0.00 | 0.00 | 0.00 | 95 | 1012.0 |
| 20260506101638 | 75 | 179 | 0.0 | 0.0 | 0.00 | 0.00 | 0.00 | 94 | 1012.0 |
| 20260506101136 | 75 | 179 | 0.0 | 0.0 | 0.00 | 0.00 | 0.00 | 94 | 1011.9 |
| 20260506100908 | 75 | 179 | 0.0 | 0.0 | 0.00 | 0.00 | 0.00 | 94 | 1011.9 |
| 20260506100408 | 75 | 179 | 0.0 | 0.0 | 0.00 | 0.00 | 0.00 | 94 | 1011.9 |
| 20260506095636 | 75 | 169 | 0.0 | 0.9 | 0.00 | 0.00 | 0.00 | 94 | 1011.8 |
| 20260506095136 | 75 | 168 | 0.0 | 0.9 | 0.00 | 0.00 | 0.00 | 94 | 1011.8 |
| 20260506094636 | 75 | 179 | 0.0 | 0.0 | 0.00 | 0.00 | 0.00 | 94 | 1011.7 |
| 20260506094135 | 75 | 182 | 0.0 | 0.0 | 0.00 | 0.00 | 0.00 | 94 | 1011.7 |
| 20260506093633 | 75 | 175 | 0.0 | 0.9 | 0.00 | 0.00 | 0.00 | 94 | 1011.8 |
| 20260506093134 | 75 | 194 | 0.0 | 0.9 | 0.00 | 0.00 | 0.00 | 94 | 1011.7 |
| 20260506092904 | 75 | 184 | 0.0 | 0.0 | 0.00 | 0.00 | 0.00 | 94 | 1011.7 |
| 20260506092131 | 75 | 180 | 0.0 | 0.9 | 0.00 | 0.00 | 0.00 | 94 | 1011.8 |
| 20260506091631 | 75 | 193 | 0.0 | 5.2 | 0.00 | 0.00 | 0.00 | 94 | 1011.8 |
| 20260506091129 | 75 | 198 | 0.0 | 5.2 | 0.00 | 0.00 | 0.00 | 94 | 1011.8 |
| 20260506090630 | 75 | 171 | 0.0 | 0.9 | 0.00 | 0.00 | 0.00 | 94 | 1011.7 |
| 20260506090130 | 75 | 180 | 0.0 | 0.9 | 0.00 | 0.00 | 0.00 | 94 | 1011.7 |
| 20260506085626 | 75 | 167 | 0.0 | 0.9 | 0.00 | 0.00 | 0.00 | 94 | 1011.7 |
| 20260506085128 | 75 | 199 | 0.0 | 0.9 | 0.00 | 0.00 | 0.00 | 94 | 1011.8 |
| 20260506084626 | 75 | 194 | 0.0 | 0.9 | 0.00 | 0.00 | 0.00 | 94 | 1011.7 |
| 20260506084126 | 75 | 168 | 0.0 | 0.0 | 0.00 | 0.00 | 0.00 | 94 | 1011.7 |
| 20260506083856 | 75 | 165 | 0.0 | 0.0 | 0.00 | 0.00 | 0.00 | 94 | 1011.8 |
| 20260506083356 | 75 | 164 | 0.0 | 0.0 | 0.00 | 0.00 | 0.00 | 94 | 1011.8 |
| 20260506082625 | 75 | 190 | 0.0 | 0.0 | 0.00 | 0.00 | 0.00 | 94 | 1011.7 |
| 20260506082125 | 75 | 190 | 0.0 | 0.0 | 0.00 | 0.00 | 0.00 | 94 | 1011.7 |
| 20260506081624 | 75 | 200 | 0.0 | 0.0 | 0.00 | 0.00 | 0.00 | 94 | 1011.7 |
| 20260506081125 | 75 | 163 | 0.0 | 0.9 | 0.00 | 0.00 | 0.00 | 94 | 1011.7 |
| 20260506080624 | 75 | 189 | 0.0 | 0.9 | 0.00 | 0.00 | 0.00 | 94 | 1011.6 |
| 20260506080124 | 75 | 193 | 0.0 | 0.0 | 0.00 | 0.00 | 0.00 | 94 | 1011.6 |
| 20260506073125 | 75 | 175 | 0.0 | 0.0 | 0.00 | 0.00 | 0.00 | 94 | 1011.5 |
| 20260506072626 | 75 | 179 | 0.0 | 6.1 | 0.00 | 0.00 | 0.00 | 94 | 1011.6 |
| 20260506072125 | 75 | 190 | 0.0 | 6.1 | 0.00 | 0.00 | 0.00 | 94 | 1011.5 |
| 20260506071626 | 75 | 172 | 0.0 | 1.7 | 0.00 | 0.00 | 0.00 | 94 | 1011.5 |
| 20260506071124 | 75 | 190 | 0.0 | 1.7 | 0.00 | 0.00 | 0.00 | 94 | 1011.7 |
| 20260506070630 | 75 | 188 | 0.0 | 1.7 | 0.00 | 0.00 | 0.00 | 94 | 1011.8 |
| 20260506070626 | 75 | 176 | 0.0 | 1.7 | 0.00 | 0.00 | 0.00 | 94 | 1011.8 |
| 20260506062115 | 75 | 151 | 0.0 | 4.3 | 0.00 | 0.00 | 0.00 | 93 | 1011.9 |
| 20260506061611 | 75 | 175 | 0.0 | 0.0 | 0.00 | 0.00 | 0.00 | 93 | 1011.9 |
| 20260506061112 | 75 | 182 | 0.0 | 0.9 | 0.00 | 0.00 | 0.00 | 93 | 1011.9 |
| 20260506060611 | 75 | 165 | 0.0 | 4.3 | 0.00 | 0.00 | 0.00 | 93 | 1011.9 |
| 20260506060110 | 75 | 163 | 0.0 | 4.3 | 0.00 | 0.00 | 0.00 | 93 | 1011.9 |
| 20260506051105 | 76 | 153 | 0.0 | 6.1 | 0.00 | 0.00 | 0.00 | 92 | 1012.0 |
| 20260506050604 | 76 | 175 | 0.9 | 6.1 | 0.00 | 0.00 | 0.00 | 91 | 1012.0 |
| 20260506050104 | 76 | 168 | 0.9 | 7.8 | 0.00 | 0.00 | 0.00 | 91 | 1011.8 |
| 20260506045105 | 76 | 153 | 0.9 | 10.4 | 0.00 | 0.00 | 0.00 | 91 | 1011.5 |
| 20260506044839 | 76 | 150 | 2.6 | 10.4 | 0.00 | 0.00 | 0.00 | 91 | 1011.5 |
| 20260506044103 | 76 | 176 | 2.6 | 10.4 | 0.00 | 0.00 | 0.00 | 91 | 1011.6 |
| 20260506043602 | 76 | 196 | 0.0 | 8.7 | 0.00 | 0.00 | 0.00 | 91 | 1011.7 |
| 20260506043102 | 76 | 183 | 0.0 | 0.9 | 0.00 | 0.00 | 0.00 | 90 | 1011.7 |
| 20260506042600 | 76 | 168 | 0.0 | 0.9 | 0.00 | 0.00 | 0.00 | 90 | 1011.7 |
| 20260506042057 | 76 | 161 | 0.0 | 0.0 | 0.00 | 0.00 | 0.00 | 90 | 1011.6 |
| 20260506041557 | 76 | 150 | 0.0 | 0.0 | 0.00 | 0.00 | 0.00 | 90 | 1011.6 |
| 20260506041057 | 76 | 151 | 0.0 | 9.6 | 0.00 | 0.00 | 0.00 | 90 | 1011.6 |
| 20260506040556 | 76 | 162 | 0.0 | 9.6 | 0.00 | 0.00 | 0.00 | 90 | 1011.6 |
| 20260506040057 | 76 | 184 | 0.0 | 3.5 | 0.00 | 0.00 | 0.00 | 89 | 1011.5 |
| 20260506035556 | 77 | 184 | 0.0 | 3.5 | 0.00 | 0.00 | 0.00 | 89 | 1011.4 |
| 20260506035056 | 77 | 173 | 0.0 | 0.9 | 0.00 | 0.00 | 0.00 | 89 | 1011.4 |
| 20260506034557 | 77 | 184 | 0.0 | 5.2 | 0.00 | 0.00 | 0.00 | 89 | 1011.3 |
| 20260506034057 | 77 | 167 | 0.9 | 9.6 | 0.00 | 0.00 | 0.00 | 89 | 1011.3 |
| 20260506033828 | 77 | 198 | 0.9 | 9.6 | 0.00 | 0.00 | 0.00 | 89 | 1011.3 |
| 20260506033055 | 77 | 168 | 0.0 | 0.9 | 0.00 | 0.00 | 0.00 | 88 | 1011.2 |
| 20260506032556 | 77 | 178 | 0.0 | 0.9 | 0.00 | 0.00 | 0.00 | 88 | 1011.3 |
| 20260506032056 | 77 | 202 | 0.0 | 0.9 | 0.00 | 0.00 | 0.00 | 88 | 1011.2 |
| 20260506031556 | 77 | 143 | 0.0 | 0.0 | 0.00 | 0.00 | 0.00 | 89 | 1011.2 |
| 20260506031058 | 77 | 168 | 0.0 | 0.9 | 0.00 | 0.00 | 0.00 | 89 | 1011.2 |
| 20260506030557 | 77 | 153 | 0.0 | 0.9 | 0.00 | 0.00 | 0.00 | 88 | 1011.0 |
| 20260506030054 | 77 | 166 | 0.0 | 0.9 | 0.00 | 0.00 | 0.00 | 88 | 1011.0 |
| 20260506025554 | 77 | 168 | 0.0 | 0.9 | 0.00 | 0.00 | 0.00 | 88 | 1010.9 |
| 20260506025056 | 77 | 170 | 0.0 | 0.9 | 0.00 | 0.00 | 0.00 | 88 | 1010.9 |
| 20260506024555 | 77 | 169 | 0.0 | 1.7 | 0.00 | 0.00 | 0.00 | 88 | 1010.7 |
| 20260506024053 | 77 | 150 | 0.0 | 1.7 | 0.00 | 0.00 | 0.00 | 88 | 1010.7 |
| 20260506023823 | 77 | 182 | 0.0 | 0.9 | 0.00 | 0.00 | 0.00 | 88 | 1010.7 |
| 20260506023052 | 77 | 196 | 0.0 | 0.9 | 0.00 | 0.00 | 0.00 | 88 | 1010.5 |
| 20260506022553 | 77 | 150 | 0.0 | 0.9 | 0.00 | 0.00 | 0.00 | 88 | 1010.5 |
| 20260506022053 | 77 | 178 | 0.0 | 0.0 | 0.00 | 0.00 | 0.00 | 88 | 1010.5 |
| 20260506021552 | 77 | 162 | 0.0 | 0.0 | 0.00 | 0.00 | 0.00 | 88 | 1010.6 |
| 20260506021052 | 77 | 144 | 0.0 | 0.0 | 0.00 | 0.00 | 0.00 | 88 | 1010.7 |
| 20260506020825 | 77 | 179 | 0.0 | 0.0 | 0.00 | 0.00 | 0.00 | 88 | 1010.5 |
| 20260506020053 | 77 | 178 | 0.0 | 0.9 | 0.00 | 0.00 | 0.00 | 88 | 1010.5 |
| 20260506015552 | 77 | 172 | 0.0 | 0.9 | 0.00 | 0.00 | 0.00 | 88 | 1010.4 |
| 20260506015050 | 77 | 173 | 0.0 | 0.0 | 0.00 | 0.00 | 0.00 | 88 | 1010.4 |
| 20260506014551 | 77 | 185 | 0.0 | 0.0 | 0.00 | 0.00 | 0.00 | 87 | 1010.4 |
| 20260506014052 | 77 | 195 | 0.0 | 0.0 | 0.00 | 0.00 | 0.00 | 87 | 1010.3 |
| 20260506013550 | 78 | 192 | 0.0 | 0.0 | 0.00 | 0.00 | 0.00 | 86 | 1010.3 |
| 20260506013050 | 78 | 197 | 0.0 | 0.0 | 0.00 | 0.00 | 0.00 | 86 | 1010.2 |
| 20260506012823 | 78 | 180 | 0.0 | 0.9 | 0.00 | 0.00 | 0.00 | 85 | 1010.1 |
| 20260506012051 | 78 | 170 | 0.0 | 0.9 | 0.00 | 0.00 | 0.00 | 85 | 1010.0 |
| 20260506011552 | 79 | 176 | 0.0 | 0.0 | 0.00 | 0.00 | 0.00 | 85 | 1009.8 |
| 20260506011050 | 79 | 173 | 0.0 | 0.9 | 0.00 | 0.00 | 0.00 | 84 | 1009.5 |
| 20260506010553 | 79 | 186 | 0.0 | 2.6 | 0.00 | 0.00 | 0.00 | 84 | 1009.5 |
| 20260506010548 | 79 | 192 | 0.0 | 2.6 | 0.00 | 0.00 | 0.00 | 84 | 1009.6 |
| 20260506005551 | 79 | 163 | 0.0 | 0.0 | 0.00 | 0.00 | 0.00 | 84 | 1009.3 |
| 20260506005547 | 79 | 174 | 0.0 | 0.0 | 0.00 | 0.00 | 0.00 | 84 | 1009.5 |
| 20260506004546 | 80 | 171 | 0.0 | 0.0 | 0.00 | 0.00 | 0.00 | 84 | 1009.2 |
| 20260506004047 | 80 | 193 | 0.0 | 0.0 | 0.00 | 0.00 | 0.00 | 83 | 1009.1 |
| 20260506003545 | 80 | 163 | 1.7 | 7.8 | 0.00 | 0.00 | 0.00 | 83 | 1009.1 |
| 20260506003047 | 80 | 163 | 3.5 | 8.7 | 0.00 | 0.00 | 0.00 | 82 | 1009.1 |
| 20260506002547 | 80 | 165 | 4.3 | 10.4 | 0.00 | 0.00 | 0.00 | 82 | 1009.2 |
| 20260506002046 | 80 | 161 | 3.5 | 10.4 | 0.00 | 0.00 | 0.00 | 82 | 1009.1 |
| 20260506001546 | 81 | 154 | 2.6 | 9.6 | 0.00 | 0.00 | 0.00 | 82 | 1009.1 |
| 20260506001044 | 81 | 159 | 4.3 | 11.3 | 0.00 | 0.00 | 0.00 | 81 | 1009.0 |
| 20260506000545 | 81 | 163 | 6.1 | 11.3 | 0.00 | 0.00 | 0.00 | 81 | 1008.9 |
| 20260506000044 | 81 | 184 | 6.1 | 10.4 | 0.00 | 0.00 | 0.00 | 81 | 1008.9 |
| 20260505235544 | 81 | 202 | 6.1 | 13.0 | 0.00 | 0.00 | 0.00 | 80 | 1008.9 |
| 20260505235045 | 81 | 179 | 6.1 | 14.8 | 0.00 | 0.00 | 0.00 | 80 | 1008.8 |
| 20260505234546 | 82 | 165 | 4.3 | 14.8 | 0.00 | 0.00 | 0.00 | 80 | 1008.7 |
| 20260505234314 | 82 | 168 | 3.5 | 12.2 | 0.00 | 0.00 | 0.00 | 80 | 1008.8 |
| 20260505233544 | 82 | 182 | 3.5 | 12.2 | 0.00 | 0.00 | 0.00 | 80 | 1008.7 |
| 20260505233045 | 82 | 161 | 1.7 | 10.4 | 0.00 | 0.00 | 0.00 | 80 | 1008.9 |
| 20260505232543 | 82 | 186 | 1.7 | 11.3 | 0.00 | 0.00 | 0.00 | 81 | 1008.8 |
| 20260505232044 | 82 | 167 | 5.2 | 11.3 | 0.00 | 0.00 | 0.00 | 79 | 1008.8 |
| 20260505231545 | 83 | 215 | 6.1 | 13.9 | 0.00 | 0.00 | 0.00 | 79 | 1008.8 |
| 20260505231042 | 83 | 194 | 6.1 | 13.9 | 0.00 | 0.00 | 0.00 | 79 | 1008.7 |
| 20260505230539 | 83 | 176 | 5.2 | 13.0 | 0.00 | 0.00 | 0.00 | 79 | 1008.7 |
| 20260505230039 | 83 | 208 | 2.6 | 10.4 | 0.00 | 0.00 | 0.00 | 79 | 1008.7 |
| 20260505225541 | 83 | 158 | 0.0 | 12.2 | 0.00 | 0.00 | 0.00 | 78 | 1008.7 |
| 20260505225310 | 83 | 157 | 3.5 | 12.2 | 0.00 | 0.00 | 0.00 | 78 | 1008.7 |
| 20260505224544 | 84 | 165 | 2.6 | 11.3 | 0.00 | 0.00 | 0.00 | 77 | 1008.8 |
| 20260505224538 | 84 | 145 | 5.2 | 11.3 | 0.00 | 0.00 | 0.00 | 77 | 1008.6 |
| 20260505223537 | 84 | 169 | 0.0 | 8.7 | 0.00 | 0.00 | 0.00 | 77 | 1008.9 |
| 20260505223037 | 84 | 171 | 0.9 | 7.8 | 0.00 | 0.00 | 0.00 | 79 | 1009.1 |
| 20260505222807 | 84 | 194 | 4.3 | 14.8 | 0.00 | 0.00 | 0.00 | 78 | 1009.1 |
| 20260505222036 | 84 | 160 | 4.3 | 14.8 | 0.00 | 0.00 | 0.00 | 77 | 1009.1 |
| 20260505221537 | 84 | 157 | 4.3 | 12.2 | 0.00 | 0.00 | 0.00 | 77 | 1009.1 |
| 20260505221037 | 84 | 187 | 3.5 | 12.2 | 0.00 | 0.00 | 0.00 | 78 | 1009.2 |
| 20260505220539 | 84 | 199 | 0.9 | 10.4 | 0.00 | 0.00 | 0.00 | 78 | 1009.1 |
| 20260505220036 | 84 | 186 | 0.9 | 10.4 | 0.00 | 0.00 | 0.00 | 78 | 1009.3 |
| 20260505215535 | 85 | 192 | 0.0 | 0.9 | 0.00 | 0.00 | 0.00 | 77 | 1009.3 |
| 20260505215034 | 84 | 179 | 1.7 | 8.7 | 0.00 | 0.00 | 0.00 | 78 | 1009.4 |
| 20260505214533 | 84 | 194 | 5.2 | 14.8 | 0.00 | 0.00 | 0.00 | 78 | 1009.5 |
| 20260505214035 | 84 | 160 | 7.0 | 14.8 | 0.00 | 0.00 | 0.00 | 78 | 1009.4 |
| 20260505213806 | 84 | 172 | 6.1 | 13.0 | 0.00 | 0.00 | 0.00 | 78 | 1009.5 |
| 20260505213034 | 84 | 175 | 6.1 | 11.3 | 0.00 | 0.00 | 0.00 | 77 | 1009.5 |
| 20260505212535 | 85 | 193 | 5.2 | 11.3 | 0.00 | 0.00 | 0.00 | 76 | 1009.5 |
| 20260505212033 | 85 | 166 | 4.3 | 10.4 | 0.00 | 0.00 | 0.00 | 76 | 1009.6 |
| 20260505211534 | 85 | 200 | 4.3 | 10.4 | 0.00 | 0.00 | 0.00 | 78 | 1009.5 |
| 20260505211035 | 85 | 215 | 3.5 | 13.9 | 0.00 | 0.00 | 0.00 | 76 | 1009.6 |
| 20260505210806 | 85 | 188 | 4.3 | 13.9 | 0.00 | 0.00 | 0.00 | 78 | 1009.8 |
| 20260505210305 | 84 | 149 | 3.5 | 13.9 | 0.00 | 0.00 | 0.00 | 77 | 1009.8 |
| 20260505205803 | 85 | 147 | 2.6 | 13.9 | 0.00 | 0.00 | 0.00 | 78 | 1010.0 |
| 20260505205033 | 85 | 216 | 3.5 | 12.2 | 0.00 | 0.00 | 0.00 | 78 | 1010.0 |
| 20260505204803 | 85 | 170 | 1.7 | 12.2 | 0.00 | 0.00 | 0.00 | 77 | 1010.1 |
| 20260505204033 | 84 | 154 | 0.0 | 0.9 | 0.00 | 0.00 | 0.00 | 79 | 1010.1 |
| 20260505203532 | 84 | 166 | 0.0 | 0.9 | 0.00 | 0.00 | 0.00 | 77 | 1010.2 |
| 20260505203305 | 84 | 199 | 0.0 | 0.9 | 0.00 | 0.00 | 0.00 | 78 | 1010.3 |
| 20260505202532 | 85 | 172 | 0.0 | 0.9 | 0.00 | 0.00 | 0.00 | 79 | 1010.3 |
| 20260505202031 | 85 | 159 | 0.0 | 0.9 | 0.00 | 0.00 | 0.00 | 78 | 1010.4 |
| 20260505201531 | 85 | 170 | 0.0 | 7.8 | 0.00 | 0.00 | 0.00 | 77 | 1010.4 |
| 20260505201033 | 84 | 163 | 0.0 | 7.8 | 0.00 | 0.00 | 0.00 | 78 | 1010.4 |
| 20260505200533 | 84 | 170 | 0.9 | 10.4 | 0.00 | 0.00 | 0.00 | 77 | 1010.5 |
| 20260505200033 | 84 | 195 | 0.9 | 10.4 | 0.00 | 0.00 | 0.00 | 77 | 1010.5 |
| 20260505195532 | 85 | 207 | 0.0 | 7.0 | 0.00 | 0.00 | 0.00 | 76 | 1010.6 |
| 20260505195033 | 84 | 194 | 0.0 | 7.0 | 0.00 | 0.00 | 0.00 | 77 | 1010.7 |
| 20260505194531 | 84 | 159 | 0.0 | 5.2 | 0.00 | 0.00 | 0.00 | 77 | 1010.7 |
| 20260505194302 | 85 | 231 | 0.0 | 10.4 | 0.00 | 0.00 | 0.00 | 75 | 1010.8 |
| 20260505193531 | 85 | 152 | 0.9 | 10.4 | 0.00 | 0.00 | 0.00 | 77 | 1010.8 |
| 20260505193032 | 84 | 180 | 0.0 | 9.6 | 0.00 | 0.00 | 0.00 | 77 | 1010.8 |
| 20260505192802 | 84 | 211 | 0.0 | 0.9 | 0.00 | 0.00 | 0.00 | 78 | 1010.9 |
| 20260505192032 | 84 | 166 | 0.0 | 7.8 | 0.00 | 0.00 | 0.00 | 78 | 1010.9 |
| 20260505191532 | 84 | 180 | 0.0 | 7.8 | 0.00 | 0.00 | 0.00 | 78 | 1010.9 |
| 20260505191031 | 83 | 205 | 0.0 | 3.5 | 0.00 | 0.00 | 0.00 | 79 | 1011.1 |
| 20260505190531 | 83 | 140 | 0.0 | 6.1 | 0.00 | 0.00 | 0.00 | 78 | 1011.1 |
| 20260505190031 | 83 | 202 | 0.0 | 6.1 | 0.00 | 0.00 | 0.00 | 80 | 1011.0 |
| 20260505185531 | 83 | 150 | 0.0 | 0.9 | 0.00 | 0.00 | 0.00 | 79 | 1011.0 |
| 20260505185031 | 83 | 197 | 0.9 | 6.1 | 0.00 | 0.00 | 0.00 | 80 | 1011.1 |
| 20260505184532 | 83 | 259 | 2.6 | 12.2 | 0.00 | 0.00 | 0.00 | 81 | 1011.1 |
| 20260505184031 | 83 | 167 | 4.3 | 12.2 | 0.00 | 0.00 | 0.00 | 81 | 1011.1 |
| 20260505183531 | 83 | 187 | 2.6 | 10.4 | 0.00 | 0.00 | 0.00 | 82 | 1011.1 |
| 20260505183033 | 82 | 169 | 2.6 | 9.6 | 0.00 | 0.00 | 0.00 | 84 | 1011.2 |
| 20260505182805 | 81 | 196 | 4.3 | 10.4 | 0.00 | 0.00 | 0.00 | 83 | 1011.3 |
| 20260505182033 | 81 | 194 | 4.3 | 10.4 | 0.00 | 0.00 | 0.00 | 83 | 1011.4 |
| 20260505181531 | 81 | 155 | 2.6 | 8.7 | 0.00 | 0.00 | 0.00 | 83 | 1011.4 |
| 20260505181301 | 81 | 205 | 2.6 | 8.7 | 0.00 | 0.00 | 0.00 | 84 | 1011.3 |
| 20260505180529 | 81 | 157 | 3.5 | 9.6 | 0.00 | 0.00 | 0.00 | 83 | 1011.2 |
| 20260505180029 | 81 | 207 | 4.3 | 10.4 | 0.00 | 0.00 | 0.00 | 84 | 1011.3 |
| 20260505175527 | 81 | 187 | 4.3 | 10.4 | 0.00 | 0.00 | 0.00 | 85 | 1011.2 |
| 20260505175028 | 80 | 187 | 5.2 | 10.4 | 0.00 | 0.00 | 0.00 | 84 | 1011.3 |
| 20260505174759 | 80 | 171 | 4.3 | 10.4 | 0.00 | 0.00 | 0.00 | 84 | 1011.5 |
| 20260505174258 | 80 | 168 | 3.5 | 11.3 | 0.00 | 0.00 | 0.00 | 84 | 1011.5 |
| 20260505173527 | 80 | 198 | 1.7 | 11.3 | 0.00 | 0.00 | 0.00 | 85 | 1011.7 |
| 20260505173024 | 80 | 238 | 1.7 | 7.8 | 0.00 | 0.00 | 0.00 | 86 | 1011.6 |
| 20260505172524 | 79 | 180 | 1.7 | 9.6 | 0.00 | 0.00 | 0.00 | 88 | 1011.8 |
| 20260505172252 | 78 | 158 | 1.7 | 9.6 | 0.00 | 0.00 | 0.00 | 87 | 1012.0 |
| 20260505171521 | 78 | 230 | 1.7 | 7.0 | 0.00 | 0.00 | 0.00 | 87 | 1012.0 |
| 20260505171248 | 78 | 180 | 1.7 | 8.7 | 0.00 | 0.00 | 0.00 | 88 | 1012.0 |
| 20260505170517 | 78 | 210 | 0.9 | 8.7 | 0.00 | 0.00 | 0.00 | 87 | 1012.1 |
| 20260505170246 | 78 | 198 | 1.7 | 7.0 | 0.00 | 0.00 | 0.00 | 88 | 1012.1 |
| 20260505165516 | 78 | 200 | 2.6 | 7.8 | 0.00 | 0.00 | 0.00 | 88 | 1012.1 |
| 20260505165017 | 77 | 162 | 2.6 | 7.8 | 0.00 | 0.00 | 0.00 | 89 | 1012.1 |
| 20260505164516 | 77 | 170 | 1.7 | 7.8 | 0.00 | 0.00 | 0.00 | 89 | 1012.1 |
| 20260505164013 | 77 | 211 | 0.9 | 8.7 | 0.00 | 0.00 | 0.00 | 90 | 1012.0 |
| 20260505163514 | 76 | 195 | 0.0 | 8.7 | 0.00 | 0.00 | 0.00 | 89 | 1011.9 |
| 20260505163013 | 76 | 233 | 0.9 | 6.1 | 0.00 | 0.00 | 0.00 | 89 | 1012.1 |
| 20260505162512 | 76 | 173 | 0.9 | 6.1 | 0.00 | 0.00 | 0.00 | 89 | 1012.0 |
| 20260505162011 | 76 | 188 | 0.0 | 4.3 | 0.00 | 0.00 | 0.00 | 89 | 1012.1 |
| 20260505161744 | 76 | 200 | 0.0 | 7.8 | 0.00 | 0.00 | 0.00 | 89 | 1012.1 |
| 20260505161243 | 76 | 183 | 0.0 | 7.8 | 0.00 | 0.00 | 0.00 | 90 | 1012.1 |
| 20260505160743 | 76 | 209 | 0.0 | 3.5 | 0.00 | 0.00 | 0.00 | 90 | 1012.1 |
| 20260505153011 | 74 | 226 | 2.6 | 9.6 | 0.00 | 0.00 | 0.00 | 92 | 1012.3 |
| 20260505152510 | 74 | 209 | 3.5 | 8.7 | 0.00 | 0.00 | 0.00 | 91 | 1012.2 |
| 20260505152010 | 74 | 185 | 3.5 | 8.7 | 0.00 | 0.00 | 0.00 | 91 | 1012.2 |
| 20260505151511 | 74 | 202 | 3.5 | 8.7 | 0.00 | 0.00 | 0.00 | 91 | 1012.3 |
| 20260505151009 | 74 | 180 | 3.5 | 7.8 | 0.00 | 0.00 | 0.00 | 91 | 1012.3 |
| 20260505150510 | 74 | 219 | 4.3 | 10.4 | 0.00 | 0.00 | 0.00 | 91 | 1012.2 |
| 20260505140508 | 73 | 161 | 0.9 | 9.6 | 0.00 | 0.00 | 0.00 | 93 | 1012.0 |
| 20260505125003 | 71 | 173 | 0.9 | 7.8 | 0.00 | 0.00 | 0.00 | 93 | 1011.5 |
| 20260505124734 | 71 | 171 | 0.9 | 7.8 | 0.00 | 0.00 | 0.00 | 93 | 1011.5 |
| 20260505124004 | 71 | 168 | 0.0 | 8.7 | 0.00 | 0.00 | 0.00 | 93 | 1011.6 |
| 20260505123734 | 71 | 252 | 0.0 | 8.7 | 0.00 | 0.00 | 0.00 | 94 | 1011.6 |
| 20260505123002 | 71 | 185 | 0.9 | 7.0 | 0.00 | 0.00 | 0.00 | 94 | 1011.6 |
| 20260505122504 | 71 | 192 | 0.9 | 7.0 | 0.00 | 0.00 | 0.00 | 94 | 1011.6 |
| 20260505122004 | 71 | 194 | 0.0 | 5.2 | 0.00 | 0.00 | 0.00 | 94 | 1011.4 |
| 20260505121503 | 71 | 172 | 0.0 | 5.2 | 0.00 | 0.00 | 0.00 | 94 | 1011.1 |
| 20260505121004 | 71 | 207 | 0.9 | 7.8 | 0.00 | 0.00 | 0.00 | 94 | 1011.4 |
| 20260505120502 | 71 | 178 | 0.9 | 7.8 | 0.00 | 0.00 | 0.00 | 94 | 1011.3 |
| 20260505120002 | 70 | 219 | 0.9 | 7.0 | 0.00 | 0.00 | 0.00 | 94 | 1011.2 |
| 20260505115502 | 70 | 205 | 0.9 | 7.8 | 0.00 | 0.00 | 0.00 | 94 | 1010.8 |
| 20260505115004 | 70 | 145 | 0.9 | 7.8 | 0.00 | 0.00 | 0.00 | 94 | 1010.9 |
| 20260505114501 | 70 | 177 | 0.0 | 5.2 | 0.00 | 0.00 | 0.00 | 94 | 1011.2 |
| 20260505114000 | 70 | 207 | 0.0 | 5.2 | 0.00 | 0.00 | 0.00 | 94 | 1011.3 |
| 20260505113457 | 70 | 185 | 0.0 | 6.1 | 0.00 | 0.00 | 0.00 | 94 | 1010.8 |
| 20260505112958 | 70 | 207 | 0.9 | 8.7 | 0.00 | 0.00 | 0.00 | 94 | 1010.8 |
| 20260505112457 | 70 | 177 | 0.9 | 8.7 | 0.00 | 0.00 | 0.00 | 94 | 1010.8 |
| 20260505111958 | 70 | 176 | 0.9 | 8.7 | 0.00 | 0.00 | 0.00 | 94 | 1010.8 |
| 20260505111458 | 70 | 209 | 0.9 | 7.8 | 0.00 | 0.00 | 0.00 | 94 | 1010.9 |
| 20260505110956 | 70 | 191 | 0.9 | 7.8 | 0.00 | 0.00 | 0.00 | 94 | 1011.0 |